Regional Weather Roundup
Issued by NWS Upton, NY

Current Version | Previous Version | Text Only | Print | Product List | Glossary On
Versions: 1 2 3 4 5 6 7 8 9 10 11 12 13 14 15 16 17 18 19 20 21 22 23 24 25 26 27 28 29 30 31 32 33 34 35 36 37 38 39 40 41 42 43 44 45 46 47 48 49 50
000
ASUS41 KOKX 020204
RWROKX

REGIONAL WEATHER ROUNDUP
NATIONAL WEATHER SERVICE NEW YORK NY
1000 PM EDT TUE SEP 01 2015

NOTE: "FAIR" INDICATES FEW OR NO CLOUDS BELOW 12,000 FEET WITH NO
SIGNIFICANT WEATHER AND/OR OBSTRUCTIONS TO VISIBILITY.

NYZ071-072-176-178-NJZ106-104-020300-
NEW YORK CITY METRO AREA


CITY           SKY/WX    TMP DP  RH WIND       PRES   REMARKS
CENTRAL PARK   CLEAR     78  63  59 S3        30.07S
LAGUARDIA APRT PTCLDY    77  67  71 S5        30.04S
KENNEDY INTL   PTCLDY    75  69  81 S5        30.06S
NEWARK/LIBERTY CLEAR     79  66  64 CALM      30.04S
BRNX BOT. GARD   N/A     73  64  73 SE1       30.05F
TETERBORO      CLEAR     78  63  59 S3        30.03S
$$

NYZ177-179-078>081-020300-
LONG ISLAND NEW YORK

CITY           SKY/WX    TMP DP  RH WIND       PRES   REMARKS
FARMINGDALE    CLEAR     75  67  76 SW5       30.06R
ISLIP          CLEAR     73  67  81 CALM      30.04S
SHIRLEY        CLEAR     71  68  90 CALM      30.06S
WESTHAMPTON    CLEAR     65  61  87 CALM      30.08R FOG
MONTAUK POINT    N/A     72  68  87 S3        30.07S
$$

NYZ052-065-067-020300-
HUDSON VALLEY

CITY           SKY/WX    TMP DP  RH WIND       PRES   REMARKS
WHITE PLAINS   CLEAR     72  64  76 CALM      30.06S
NEWBURGH       CLEAR     72  64  78 CALM      30.06S
MONTGOMERY     CLEAR     67  64  90 CALM      30.05S
POUGHKEEPSIE   CLEAR     69  63  81 CALM      30.04R
ALBANY         CLEAR     73  64  73 CALM      30.04R
$$

NJZ001-105-106-008-010-013-015-019>022-104-020300-
NEW JERSEY

CITY           SKY/WX    TMP DP  RH WIND       PRES   REMARKS
NEWARK/LIBERTY CLEAR     79  66  64 CALM      30.04S
TETERBORO      CLEAR     78  63  59 S3        30.03S
CALDWELL       CLEAR     76  63  64 CALM      30.05R
MORRISTOWN     CLEAR     70  66  88 CALM      30.06R
SOMERVILLE     CLEAR     72  65  78 CALM      30.03S
SUSSEX         CLEAR     66  63  90 CALM      30.06S
ANDOVER          N/A     66  65  96 CALM      30.07R
TRENTON        CLEAR     76  66  71 SW6       30.05R
MILLVILLE      CLEAR     73  71  93 CALM      30.05R FOG
ATLANTIC CITY  CLOUDY    77  73  87 S6        30.06R
WRIGHTSTOWN    CLEAR     72  68  87 S2        30.03R
TOMS RIVER     CLEAR     68  64  88 CALM      30.06R
BELMAR         CLEAR     73  64  73 S3        30.06R
$$

PAZ047>061-062-071-020300-
EASTERN PENNSYLVANIA

CITY           SKY/WX    TMP DP  RH WIND       PRES   REMARKS
PHILADELPHIA   CLEAR     79  70  74 E5        30.06R
ALLENTOWN      CLEAR     72  66  81 N3        30.05S
SCRANTON       CLEAR     73  62  68 E7        30.07S
$$

CTZ002-004>006-009-010-012-RIZ004-006-007-MAZ004-011-015-020300-
SOUTHERN NEW ENGLAND
 IN CT

CITY           SKY/WX    TMP DP  RH WIND       PRES   REMARKS
BRADLEY INTL   CLEAR     72  62  71 S6        30.04R
HARTFORD       CLEAR     73  65  75 SE3       30.05R
DANBURY        CLEAR     68  62  81 CALM      30.08R
WTRBRY/OXFORD  CLEAR     70  59  68 CALM      30.09R
BRIDGEPORT     CLEAR     76  64  66 S5        30.05R
MERIDEN        CLEAR     71  63  75 CALM      30.06R
NEW HAVEN      CLEAR     72  65  78 S5        30.06R
CHESTER        NOT AVBL
GROTON         CLEAR     67  66  97 CALM      30.06R
WILLIMANTIC    CLEAR     71  63  75 CALM      30.07R

 IN RI

CITY           SKY/WX    TMP DP  RH WIND       PRES   REMARKS
PROVIDENCE     CLEAR     70  63  78 SW3       30.07R
BLOCK ISLAND   CLEAR     70  68  94 S6        30.07R
WESTERLY       CLEAR     67  64  90 CALM      30.07R

 IN MA

CITY           SKY/WX    TMP DP  RH WIND       PRES   REMARKS
BOSTON         CLEAR     70  63  78 S6        30.04
WORCESTER      CLEAR     66  58  75 SW8       30.08R
WESTFIELD      CLEAR     66  61  84 CALM      30.05R
PROVINCETOWN     N/A     66  57  72 S6        30.07R
NANTUCKET      PTCLDY    63  62  97 S5        30.07R FOG
$$

ANZ330-335-338-340-345-350-353-355-020300-
COASTAL MARINE OBSERVATIONS


STATION/POSITION TIME  SKY/WX   TEMP    WIND        PRES    VSBY  WAVE
                                AIR SEA DIR/SP/G                  HT/PER
                 (UTC)          (F)     (DEG/KT/KT) (MB)    (MI)  (FT/S)
NY HARB ENTRANCE 0050            76 77  190/  8/ 10 1017.1          2/ 8
4S FIRE IS       NOT AVBL
20S FIRE ISLAND  0050            75 75  140/  8/ 10 1017.0          2/ 8
GREAT SOUTH BAY  0100            75 79  170/  6/  8   N/A
23SW MTP         0150            73 72  170/  4/  4 1017.4          2/ 8
HUDSON CANYON    NOT AVBL
KINGS POINT      0100            76 73  180/  3/  5 1016.9
EXECUTION ROCKS  0100            77     190/  6/  8   N/A
CENTRAL LI SOUND NOT AVBL
EASTERN LI SOUND 0100            72 71  180/  4/  6   N/A
ROBBINS REEF     0100            76     180/  6/  7 1016.4
$$


>>>>>>>>>>>>>>>>>>>>>>>>>>>> KEY <<<<<<<<<<<<<<<<<<<<<<<<<<<
>                                                          <
>     SKY/WX - SKY CONDITION/PRESENT WEATHER               <
>     TMP    - TEMPERATURE IN FAHRENHEIT                   <
>     DP     - DEWPOINT IN FAHRENHEIT                      <
>     RH     - RELATIVE HUMIDITY IN PERCENT                <
>     WIND   - DIRECTION AND SPEED IN MPH                  <
>     PRES   - MEAN SEA LEVEL PRESSURE IN INCHES OF HG     <
>     WCI    - WIND CHILL INDEX                            <
>     VSB    - VISIBILITY IN MILES                         <
>     HX     - HEAT INDEX                                  <
>     TC     - TEMPERATURE IN CELSIUS                      <
>     VRB    - VARIABLE WIND DIRECTION                     <
>                                                          <
>>>>>>>>>>>>>>>>>>>>>>>>>>>> KEY <<<<<<<<<<<<<<<<<<<<<<<<<<<





USA.gov is the U.S. government's official web portal to all federal, state and local government web resources and services.